GFSFLT1_sfc_dewp_117.txt.gz
Dewpoint
19 26 33 33 35 59 64 64 64 65 65 65 64 64 64 64 65 65 65 66 66 66 65 65 65 64 63 63 62 62 62 62
20 41 46 46 46 57 63 65 64 64 63 63 62 62 62 63 64 65 65 65 66 66 65 64 64 63 62 63 62 62 62 63
24 43 43 45 46 50 63 65 65 64 63 64 65 64 63 63 64 64 65 66 65 65 65 63 63 63 62 62 62 61 61 62
40 41 42 43 44 46 50 63 66 66 65 65 65 65 65 64 64 64 64 65 65 65 65 64 63 63 62 62 62 62 60 61
38 39 40 40 42 44 48 55 65 66 66 65 64 63 62 63 64 64 63 64 64 65 64 64 64 63 63 62 62 62 62 60
37 37 39 39 40 41 44 48 50 53 62 65 64 64 65 64 64 64 64 64 64 65 64 64 64 63 63 63 63 62 63 62
37 37 37 38 39 40 42 45 46 48 51 54 62 64 64 63 63 63 64 64 64 65 64 64 64 64 64 64 64 63 63 62
37 37 36 37 37 38 40 42 43 44 47 49 51 53 58 63 63 63 63 62 63 64 64 64 64 64 64 64 64 63 63 62
37 37 36 35 36 36 37 39 41 42 45 47 49 51 53 54 62 63 64 62 63 64 63 64 63 63 63 63 63 63 63 63
34 36 36 36 36 36 36 37 38 39 42 44 47 49 50 53 54 61 63 64 63 63 63 63 62 63 62 62 62 62 62 62
34 34 34 34 34 35 36 36 36 37 39 42 44 46 47 51 55 55 61 62 63 63 63 62 62 62 62 62 62 62 61 61
32 34 33 32 32 33 34 34 35 36 38 40 41 42 44 46 48 52 53 61 61 61 62 62 62 61 61 61 61 61 61 60
32 33 31 32 31 32 32 33 34 35 36 38 39 39 40 42 43 44 48 50 61 61 60 60 61 61 61 60 59 60 60 59
31 31 31 31 31 31 31 32 33 35 35 36 37 37 38 39 40 41 43 45 48 57 60 60 60 60 59 59 59 59 59 58
29 29 29 29 29 30 30 30 32 33 33 34 35 35 36 37 37 39 40 41 41 43 45 56 59 58 58 58 59 58 57 57
26 27 28 27 26 27 28 29 30 31 31 32 33 34 35 35 36 36 37 38 39 39 39 39 40 39 38 40 50 57 57 57
25 25 25 26 25 25 26 27 28 29 29 30 31 32 32 33 33 34 35 35 36 36 37 37 36 36 36 37 39 50 57 56
25 26 26 27 27 25 26 26 27 27 28 28 29 30 31 31 32 32 32 33 33 33 34 34 34 34 35 36 38 39 43 48
24 26 26 27 29 28 25 25 26 26 26 26 27 28 30 30 31 31 31 32 32 31 31 32 32 33 35 35 35 35 34 34

GFSFLT1_sfc_dewp_120.txt.gz
Dewpoint
20 21 21 19 21 32 36 41 63 64 65 64 62 62 63 62 63 64 66 68 67 67 67 67 67 66 66 65 64 63 62 61
19 23 25 25 30 42 41 41 58 64 62 61 60 60 61 61 62 64 66 67 67 67 66 66 66 65 64 65 64 63 63 63
24 23 26 42 45 46 47 47 50 62 62 61 60 61 60 60 61 63 65 66 67 66 66 66 65 65 65 64 63 63 63 64
37 39 42 44 45 47 48 54 51 61 63 63 61 61 61 61 61 61 64 66 66 66 66 65 65 65 64 64 63 63 62 63
38 39 40 42 43 45 49 55 61 63 65 63 62 61 60 62 61 62 63 65 65 65 65 66 65 64 64 64 63 63 63 61
37 37 38 39 40 41 46 50 52 55 65 65 63 63 62 63 63 63 64 65 65 65 65 65 64 65 65 65 63 63 64 62
38 38 38 38 39 40 43 47 48 51 55 61 65 64 64 64 64 64 64 65 65 65 65 65 65 64 64 64 64 64 64 63
35 36 37 39 39 39 41 42 44 49 52 53 56 58 61 65 64 64 64 64 64 64 65 65 65 65 64 65 64 64 64 64
33 34 35 37 38 38 39 40 41 44 47 50 52 53 54 55 58 60 64 64 64 65 65 65 65 65 65 66 66 65 65 65
32 33 34 36 38 36 38 39 39 40 43 46 47 49 50 52 54 56 57 65 64 65 65 64 64 65 64 65 65 64 64 65
30 32 32 34 35 35 36 37 38 38 40 42 44 45 47 49 52 54 56 57 62 64 64 64 64 64 64 63 63 63 63 63
30 30 32 30 32 34 34 35 35 37 38 39 41 42 43 44 46 47 50 53 54 63 63 63 63 63 62 62 62 62 62 62
30 30 30 29 29 30 32 34 35 35 37 37 38 39 39 41 42 43 45 48 50 56 62 62 62 62 62 61 61 61 61 61
30 30 29 29 29 30 31 32 35 37 36 36 36 37 37 38 39 40 41 43 44 46 47 51 59 61 61 61 61 60 60 60
30 30 30 29 30 30 30 32 33 34 35 36 35 35 36 36 37 37 39 39 40 41 41 41 42 41 41 43 49 59 60 60
27 28 29 30 29 28 28 31 31 32 32 34 35 34 34 35 36 36 36 36 37 37 38 37 38 37 36 38 41 47 56 59
24 25 26 28 28 27 27 28 30 31 31 31 32 34 33 33 34 34 34 34 34 35 35 34 34 35 35 36 39 47 45 52
25 26 27 27 29 28 28 28 28 29 29 30 30 31 32 33 32 32 32 33 33 33 33 33 33 33 34 35 36 38 37 37
25 27 27 27 28 28 28 27 28 28 29 28 29 30 30 31 32 33 34 33 33 32 32 32 32 32 33 33 35 37 35 34

GFSFLT1_sfc_dewp_123.txt.gz
Dewpoint
32 29 24 20 22 27 31 35 44 51 68 66 64 63 63 63 63 64 68 69 69 68 67 67 68 67 66 65 66 64 64 63
36 38 36 30 26 28 28 35 45 48 65 66 64 62 62 62 60 64 67 68 68 68 67 66 68 67 65 66 66 64 63 64
36 38 41 41 44 43 42 42 45 48 46 65 65 62 61 61 60 63 66 67 67 67 67 66 67 65 66 66 66 64 64 65
36 37 38 41 42 44 44 46 44 48 52 61 64 62 61 60 59 61 65 66 67 66 67 66 66 66 65 65 65 64 62 64
33 37 38 38 39 41 43 45 46 49 56 59 62 60 57 58 59 60 62 66 66 66 67 66 66 65 64 64 65 64 64 62
31 33 36 38 39 38 40 43 49 51 55 60 64 62 60 60 60 62 63 66 65 65 66 66 65 65 64 65 64 64 64 62
31 32 34 38 39 40 40 42 46 48 54 61 64 62 62 60 61 62 62 64 64 66 65 66 66 65 64 64 64 64 64 64
31 30 33 35 37 39 41 41 43 46 51 54 56 63 63 65 63 64 64 64 64 64 66 67 65 65 64 65 64 64 64 63
31 32 33 33 36 37 40 41 42 45 48 50 52 54 58 59 58 59 63 64 64 65 65 66 66 65 65 65 64 64 65 64
32 31 32 32 33 34 38 39 40 42 44 47 49 50 54 55 56 58 58 59 61 66 66 66 66 65 65 65 64 65 65 65
31 31 31 32 33 34 38 39 38 40 42 44 46 47 48 49 50 51 52 54 56 57 65 66 65 64 65 65 64 65 65 64
30 30 31 32 32 33 35 37 37 38 39 40 41 44 45 45 45 46 48 51 51 53 59 64 64 64 63 63 63 63 63 62
31 30 31 30 30 32 36 35 37 38 37 37 39 39 40 40 41 42 45 46 47 47 49 50 57 61 63 62 61 61 62 62
31 30 30 30 31 31 32 34 35 36 38 37 37 37 37 37 37 37 39 40 41 41 42 43 41 42 42 44 47 57 61 61
30 30 30 31 30 31 32 32 34 34 35 36 35 35 36 36 36 36 36 36 37 37 38 37 38 37 37 38 41 45 50 56
28 29 30 30 32 32 33 31 32 33 33 34 35 36 35 35 35 35 35 35 35 35 36 35 35 35 35 37 40 45 48 48
25 26 26 28 28 28 29 30 31 31 31 32 34 34 34 35 34 35 34 34 34 34 34 34 33 33 34 36 38 39 39 39
26 27 27 28 29 29 29 29 29 30 30 30 31 32 33 34 34 34 33 33 33 32 33 33 32 32 33 34 35 35 35 34
26 30 29 29 29 29 30 29 28 29 29 29 30 31 31 32 32 33 34 34 33 32 32 32 32 30 32 33 32 33 32 32

GFSFLT1_sfc_dewp_126.txt.gz
Dewpoint
32 34 37 38 41 45 46 46 45 50 49 62 66 66 65 66 66 66 67 69 68 67 67 67 67 66 65 65 65 65 64 63
31 34 36 38 40 42 44 46 48 43 38 58 63 64 64 65 64 66 67 67 68 67 66 67 67 66 65 65 65 64 64 64
30 31 33 36 38 39 41 42 43 45 47 47 59 63 64 64 63 64 67 67 67 66 65 66 66 65 66 65 64 64 64 64
30 30 31 33 34 37 39 40 41 43 46 47 48 54 63 63 62 62 67 67 67 67 65 64 65 64 65 64 63 63 62 63
29 30 29 30 32 35 38 39 40 41 45 47 52 53 54 61 62 61 65 67 67 67 66 65 63 65 63 64 63 63 62 62
29 29 29 29 31 33 37 38 39 42 44 49 50 51 54 59 62 60 63 66 66 66 65 65 64 64 64 63 63 63 63 62
29 29 31 31 33 35 35 38 39 42 45 48 51 53 54 56 61 59 61 65 65 65 65 65 65 63 63 63 63 64 62 63
29 30 31 32 32 33 35 36 38 42 44 48 52 54 58 59 61 59 60 63 65 64 64 65 65 64 63 64 64 63 63 62
31 32 32 32 31 32 33 35 37 41 44 48 49 51 55 56 55 59 62 64 64 65 64 64 65 64 64 64 63 64 63 63
31 32 32 31 31 32 33 34 38 40 42 45 46 47 48 51 52 52 56 56 57 59 63 65 65 64 64 64 64 63 63 63
31 31 31 31 32 32 33 35 37 39 41 42 42 43 45 47 48 48 50 50 51 53 54 61 63 64 64 64 64 63 63 63
31 31 31 32 32 32 33 34 36 38 39 39 38 40 41 42 42 44 45 45 45 47 48 49 50 54 59 63 63 63 63 63
31 31 30 31 31 32 32 34 36 36 38 37 38 38 38 39 38 40 41 41 42 42 42 43 43 42 43 46 49 57 61 61
30 30 29 31 31 32 32 33 35 36 37 37 35 36 36 36 37 37 37 38 39 38 38 38 38 39 39 41 43 46 50 53
29 29 29 30 31 31 32 32 32 33 35 35 35 35 35 36 36 36 36 36 36 36 36 36 36 36 38 39 44 46 46 47
27 28 28 29 30 30 31 32 30 31 33 34 35 35 36 35 35 34 35 34 34 34 34 33 33 34 35 38 40 39 39 39
24 25 26 29 28 28 28 29 29 30 30 31 33 34 34 34 34 34 33 33 32 33 32 31 31 31 34 34 35 35 34 33
27 28 28 28 29 28 29 28 29 28 29 29 30 31 31 32 32 32 32 32 32 31 31 31 30 31 33 34 33 32 31 31
26 30 30 30 29 29 29 29 29 29 28 29 29 30 29 29 30 31 31 31 31 31 30 30 30 30 31 32 33 32 31 30

GFSFLT1_sfc_dewp_129.txt.gz
Dewpoint
29 30 31 31 31 33 35 37 39 41 43 45 51 63 65 65 65 67 68 68 68 67 67 66 67 66 65 64 63 63 63 62
29 30 30 31 31 31 33 35 37 39 40 42 45 50 56 64 64 65 65 68 69 68 67 66 66 65 64 64 63 63 62 62
29 29 29 29 29 29 31 33 35 37 38 40 43 47 52 55 62 64 66 65 68 67 66 66 66 65 64 64 63 62 62 63
28 28 28 28 28 29 30 31 33 36 38 39 41 45 51 54 56 62 63 66 66 67 65 65 65 65 64 64 63 63 62 62
28 28 27 27 29 30 30 31 33 35 38 39 42 44 47 50 53 55 60 64 66 66 65 64 65 65 65 64 63 63 63 61
28 28 28 28 29 30 31 31 32 35 38 40 42 44 46 49 50 53 54 62 65 65 65 64 63 64 63 64 62 62 63 62
29 29 29 29 30 31 31 31 34 36 38 41 43 44 46 47 49 52 53 57 64 66 65 64 64 64 63 63 63 62 62 62
28 29 29 29 31 33 34 34 35 37 39 41 43 46 49 50 50 52 54 54 54 65 65 64 64 63 63 63 63 63 63 62
28 28 29 30 32 33 33 33 34 36 39 41 44 47 49 53 54 56 56 53 53 65 65 64 64 63 63 63 63 63 63 63
27 28 29 31 32 32 32 33 34 35 38 40 42 43 46 51 52 51 54 51 52 55 64 64 64 64 63 63 63 63 63 63
27 28 29 31 32 32 32 33 33 34 36 38 40 41 42 44 44 45 48 52 51 48 50 56 60 62 63 63 63 63 63 63
28 28 29 31 32 32 32 32 32 33 35 36 38 38 39 39 40 40 42 44 45 44 45 45 46 47 50 53 57 61 63 62
28 29 29 30 31 31 32 32 32 33 33 33 36 37 37 36 36 37 39 40 41 40 40 40 41 43 45 47 48 51 53 53
26 28 29 30 31 31 32 32 32 33 34 33 35 35 35 35 34 35 36 36 36 36 36 37 37 38 41 44 45 44 45 45
26 27 28 29 29 30 31 31 32 33 34 33 34 34 35 34 33 33 33 34 33 33 34 35 35 35 37 39 39 40 40 40
25 26 27 28 29 29 28 28 28 30 31 32 32 33 34 33 32 33 33 33 33 33 32 33 33 34 34 35 36 35 35 35
24 26 27 28 27 27 28 28 27 28 28 29 31 31 31 32 33 32 31 31 31 31 31 31 31 32 34 33 32 32 32 32
26 27 29 27 28 28 29 28 28 27 27 28 29 30 30 31 30 31 31 30 30 29 29 29 29 30 32 33 33 32 31 30
25 26 27 29 27 28 30 30 28 28 27 28 28 28 28 29 30 30 30 31 29 28 28 27 27 28 31 31 31 30 30 30

GFSFLT1_sfc_dewp_132.txt.gz
Dewpoint
29 29 29 29 29 29 29 30 32 34 36 38 39 42 47 49 54 64 64 65 67 67 67 66 66 66 65 65 64 63 63 63
29 29 28 28 27 28 28 30 30 31 33 34 37 38 42 45 52 54 62 64 64 66 66 66 66 65 65 64 63 62 61 61
28 28 28 27 27 28 29 29 30 30 32 33 36 38 41 45 46 52 58 60 63 65 66 65 66 65 65 64 63 61 62 62
28 28 27 27 28 28 29 30 30 31 32 34 35 38 42 44 47 51 55 59 62 64 65 66 65 65 64 63 63 62 60 61
27 27 27 27 28 29 30 30 30 32 32 33 34 35 37 41 46 49 50 53 57 61 64 65 65 65 64 64 63 62 61 60
27 27 27 28 28 29 30 31 31 32 33 35 35 37 39 40 44 46 48 50 54 56 57 64 65 65 65 64 63 62 62 61
27 28 28 27 28 29 30 32 32 33 36 38 38 39 39 40 42 45 47 50 53 56 55 55 65 65 65 64 63 63 62 62
27 27 28 28 29 30 31 32 32 32 35 37 39 41 43 45 45 46 48 49 52 56 57 56 57 64 65 65 64 63 62 61
27 27 29 29 30 31 32 33 33 33 35 36 39 41 43 45 47 48 49 52 53 53 52 52 59 60 64 63 63 63 62 61
27 27 28 29 31 32 33 32 33 32 35 35 37 38 40 43 46 50 52 54 54 50 49 49 57 59 63 63 63 62 63 62
27 27 28 29 32 32 33 33 32 32 33 35 36 37 38 40 42 44 45 50 50 46 46 48 47 61 63 63 62 63 62 63
27 27 27 29 30 31 31 32 31 32 33 34 35 35 36 38 38 39 40 41 43 42 42 43 44 47 53 60 60 61 62 62
26 26 28 28 29 29 30 31 31 32 33 33 33 34 34 35 37 37 37 36 37 39 39 39 39 42 44 47 49 49 49 49
22 25 27 28 28 29 29 31 31 32 32 32 33 33 33 33 35 35 36 36 35 35 35 36 37 38 39 40 41 44 44 44
21 24 26 28 28 29 28 28 30 32 32 32 32 32 33 33 33 33 34 32 33 33 33 34 34 35 36 36 36 36 37 38
24 24 26 26 28 28 28 27 27 28 29 31 32 32 33 33 32 31 31 30 31 31 31 31 32 32 33 34 34 33 34 34
24 26 25 25 26 27 27 27 27 27 26 27 28 29 30 31 32 29 29 29 28 29 30 30 31 32 33 34 33 32 32 32
24 25 27 26 25 26 27 28 26 27 26 24 23 26 27 28 28 29 27 27 27 26 27 28 29 31 32 32 32 31 30 31
23 23 23 26 24 24 26 25 26 25 26 24 22 20 22 24 25 26 28 27 24 24 24 25 26 27 30 30 30 29 29 29

GFSFLT1_sfc_dewp_138.txt.gz
Dewpoint
28 28 27 27 28 28 29 29 31 31 32 32 32 33 34 34 35 37 40 42 45 48 49 55 65 65 65 65 64 64 63 63
28 27 27 27 28 28 28 29 30 30 31 31 31 32 33 34 35 37 39 41 43 44 46 54 62 60 63 64 64 63 62 63
27 27 27 27 28 28 28 29 29 29 30 30 31 31 32 33 34 36 38 41 44 47 51 54 56 60 57 65 64 62 62 62
27 27 27 27 28 28 28 29 29 30 30 30 32 32 33 34 33 34 37 39 42 45 49 50 53 57 60 62 64 63 61 62
27 27 26 27 28 28 29 29 29 30 30 30 32 32 32 34 36 35 36 37 39 41 45 48 50 56 60 61 63 63 62 60
27 27 27 28 28 28 29 29 30 30 29 30 33 34 34 35 37 38 38 39 39 42 44 46 49 54 56 60 62 63 63 61
27 27 27 28 28 29 28 29 29 30 31 30 33 34 35 36 36 37 39 41 42 42 44 47 52 54 54 57 60 57 59 62
26 26 26 28 28 29 30 29 29 29 31 32 32 33 34 34 36 37 39 40 42 44 44 48 51 53 54 56 59 58 57 61
25 25 26 27 28 29 30 29 30 31 31 32 33 33 34 34 35 37 38 41 43 46 47 49 50 54 54 56 58 58 57 57
23 24 25 26 27 27 29 30 30 30 30 32 34 33 32 34 35 35 37 39 41 44 48 50 51 50 53 56 56 57 57 57
23 22 24 26 26 27 28 28 29 29 30 32 33 33 32 33 33 33 34 36 38 43 46 45 47 47 49 53 54 55 56 57
21 21 22 24 26 27 27 27 27 27 29 32 32 32 33 31 30 31 32 34 35 37 41 41 41 42 43 51 53 55 55 54
17 19 20 22 24 26 26 26 26 25 26 28 30 30 31 29 28 28 30 32 33 35 36 38 39 39 39 41 41 42 41 41
17 18 19 21 23 25 26 25 25 25 23 24 26 27 27 28 26 27 28 29 31 32 34 35 36 38 38 38 38 37 36 36
16 17 18 20 22 24 25 25 24 23 22 22 23 25 25 26 26 25 25 27 27 30 31 32 33 35 36 36 36 36 36 35
22 18 17 19 22 23 24 24 24 22 20 20 21 23 24 24 24 24 24 24 26 29 29 30 32 32 33 33 33 33 34 33
23 22 22 22 22 22 24 24 24 23 20 20 20 20 19 22 22 23 22 23 24 26 28 29 29 31 33 33 32 30 30 30
21 21 22 21 21 22 23 23 24 23 22 20 20 20 19 18 18 19 20 21 22 23 25 27 26 28 31 31 30 30 29 28
20 18 19 20 21 21 22 23 23 23 23 21 20 19 19 18 18 17 18 20 20 20 22 24 26 27 29 28 28 27 27 28

GFSFLT1_sfc_dewp_141.txt.gz
Dewpoint
28 29 29 29 29 31 31 32 33 34 33 33 33 33 34 34 35 35 38 40 41 42 43 46 47 51 53 65 64 65 64 64
28 29 29 29 30 31 31 31 32 32 31 31 31 32 32 33 34 36 37 38 40 41 43 46 47 48 52 61 64 63 63 64
28 28 28 29 30 31 31 31 31 31 31 31 31 32 32 32 34 35 37 38 39 39 41 44 49 52 54 57 63 61 61 64
27 27 27 29 29 30 30 31 31 31 31 30 30 32 33 32 33 34 36 39 41 40 40 43 47 50 52 54 59 56 53 60
26 26 26 27 29 30 31 31 30 31 31 30 31 30 30 31 33 34 35 38 41 42 41 41 44 47 50 55 58 57 57 55
26 26 26 27 28 29 30 31 30 30 30 30 30 31 31 31 32 35 36 38 41 42 43 43 43 46 48 52 55 59 57 59
26 27 26 26 27 28 29 30 29 30 30 30 31 32 32 32 32 33 35 37 39 41 43 45 45 46 49 52 56 60 60 59
25 26 27 27 28 28 28 29 29 30 30 31 31 32 32 32 33 33 34 36 37 39 42 45 46 47 49 53 55 58 61 61
26 28 28 28 28 29 30 29 29 29 30 30 31 31 33 32 32 33 33 35 36 39 41 43 46 48 50 52 56 57 60 59
27 27 28 28 29 31 30 29 27 28 29 30 30 30 32 31 31 31 32 34 35 38 40 43 49 49 50 52 56 56 59 59
26 27 27 28 30 31 29 28 27 27 27 29 29 28 30 29 30 30 30 33 34 36 37 40 42 44 46 50 53 56 58 59
25 26 27 27 29 30 29 28 28 27 26 27 28 28 28 29 28 29 31 32 33 33 34 36 39 40 41 47 52 54 56 56
24 26 26 26 27 27 28 28 27 27 27 26 27 27 27 28 28 28 29 31 31 32 32 32 34 36 38 39 40 41 42 42
24 25 25 25 26 27 28 28 26 27 26 26 25 26 25 26 27 28 29 29 31 31 31 31 31 32 33 35 36 36 37 38
24 24 24 25 26 27 26 25 26 27 26 25 24 25 25 25 25 26 26 28 29 30 30 31 31 31 31 31 31 32 33 34
23 23 24 25 25 25 23 22 22 20 20 21 24 25 25 24 24 25 25 26 27 29 29 29 30 31 32 31 30 29 29 30
19 20 20 23 21 21 21 21 21 20 18 18 18 18 18 22 23 24 24 25 25 27 27 28 28 30 32 31 30 29 28 27
21 22 22 22 22 21 22 22 21 20 19 18 18 17 17 17 17 19 21 22 23 24 25 26 25 26 28 28 27 27 26 27
21 23 22 22 22 22 22 22 21 21 21 19 18 17 16 16 16 17 19 20 20 21 22 23 24 22 23 24 24 24 24 24

GFSFLT1_sfc_dewp_144.txt.gz
Dewpoint
30 31 32 32 33 35 35 36 38 38 37 36 35 35 35 36 36 37 40 41 42 42 42 44 46 45 46 48 57 62 65 64
30 31 32 33 34 35 35 36 37 35 33 33 33 33 33 34 35 38 39 40 41 41 39 41 44 45 47 47 49 59 63 66
29 30 30 32 33 34 35 34 35 34 32 33 33 33 33 33 34 35 37 37 40 40 41 40 41 43 46 50 50 56 61 66
29 29 29 30 32 33 33 34 34 35 35 32 32 32 32 31 31 32 34 36 38 40 41 43 42 42 43 46 51 54 58 63
28 28 28 28 30 32 33 34 34 33 35 33 33 30 30 30 31 31 33 36 37 40 41 42 44 44 43 45 48 52 57 57
28 28 27 26 29 30 32 33 33 34 34 34 32 31 30 31 31 32 33 34 37 38 41 42 43 45 44 45 47 51 55 59
27 28 27 26 28 30 31 31 32 34 34 34 33 31 30 31 30 31 31 33 34 37 38 40 41 44 46 45 48 49 54 57
26 27 29 28 27 28 30 29 30 33 34 33 32 31 30 31 32 32 32 32 33 35 37 39 41 43 45 47 49 50 54 56
28 32 30 28 27 30 30 29 29 31 33 33 31 30 31 31 32 32 32 32 34 35 37 39 42 45 46 47 49 50 55 58
29 31 29 29 32 33 31 30 28 30 32 32 31 30 29 30 30 31 32 33 34 35 37 37 41 43 45 49 50 51 54 56
28 32 29 29 33 33 30 28 28 28 28 30 30 29 30 29 29 30 30 32 34 34 35 35 37 40 42 46 50 51 53 57
30 32 31 29 31 32 32 30 29 29 28 28 30 29 29 30 29 31 31 31 34 32 33 33 34 35 38 40 41 42 43 43
30 30 31 31 29 29 32 32 31 31 29 29 28 29 29 29 29 31 31 31 33 33 31 32 33 32 33 34 34 35 35 36
31 31 29 30 29 31 32 33 29 30 32 31 28 28 27 29 30 30 31 31 30 31 32 31 31 32 31 30 31 31 31 32
31 30 29 29 29 30 26 26 27 32 30 32 29 30 29 30 30 30 30 30 30 31 30 31 31 30 30 30 29 29 28 29
27 28 30 28 25 23 21 21 21 20 20 22 29 33 32 29 29 28 28 29 30 28 28 28 30 30 31 30 29 28 28 28
21 21 21 22 19 19 19 19 21 20 18 19 19 19 18 25 27 27 24 26 27 27 28 26 26 28 27 29 29 30 28 26
23 25 23 22 21 20 21 20 21 21 19 18 17 17 17 18 19 20 22 20 24 25 26 26 25 25 23 25 26 28 28 27
25 28 25 24 22 21 21 21 20 22 22 19 18 18 17 17 18 18 21 21 20 20 21 21 20 17 21 20 22 23 23 24